CONNECTA T1.1 (52739 NORAD) Tracking and Keplerian Element Data

This shows tracking and keplerian element data for the satellite.

Feedback or suggestion? Click here.




ElementValue
Catalog52739
NameCONNECTA T1.1
Epoch Orbit711
Epoch Day192.80682962
Epoch Year2022
RAAN307.1119
Inclination97.523
Eccentricity0.001127
Argument of Perigee92.3284
Mean Anonmoly267.9237
Mean Motion15.11997631
Decay Rate2.917E-05
L11 52739U 22057H 22192.80682962 .00002917 00000+0 17347-3 0 9992
L22 52739 97.5230 307.1119 0011270 92.3284 267.9237 15.11997631 7113

Live tracking and technical data element details for CONNECTA T1.1 (NORAD 52739). CONNECTA T1.1 can be tracked NOW for your location showing map with azimuth and elevation plus other details from your city location.

Track the satellite on the map from your city or location and see movement details for azimuth, elevation, latitude, longitude, range, height, and movement on the map or in text.







IsCatalogInMostPopularTable: catalog: 52739, numindb: 3
Update: records affected: 1



GetName: 52739 CONNECTA T1.1

Hit Count: updated at: Sun, 14 Aug 2022 00:58:53 GMT